(181989) = 1999 VW111 = 2004 BU70

Discovered at Socorro on 1999-11-09 by LINEAR.

Orbit

Orbit type: Main Belt

Note: WebGL enabled browser required.

epoch2024-03-31.0
epoch JD2460400.5
perihelion date2025-09-27.12140
perihelion JD2460945.62140
argument of perihelion (°)24.13036
ascending node (°)38.02104
inclination (°)1.26369
eccentricity0.2003541
perihelion distance (AU)1.9120616
Tisserand w.r.t. Jupiter3.5
ΔV w.r.t. Earth (km/sec)8.6
semimajor axis (AU)2.3911353
mean anomaly (°)214.69156
mean daily motion (°/day)0.26656160
aphelion distance (AU)2.870
period (years)3.7
P-vector [x]0.46719807
P-vector [y]0.80756573
P-vector [z]0.35994938
Q-vector [x]-0.88404832
Q-vector [y]0.42042330
Q-vector [z]0.20421266
absolute magnitude17.42
phase slope0.15
uncertainty0
referenceMPEC 2024-C115
observations used429
oppositions12
arc length (days)8587
first opposition used1999
last opposition used2023
residual rms (arc-secs)0.68
perturbers coarse indicatorM-v
perturbers precise indicator003Ek
first observation date used1999-11-09.0
last observation date used2023-05-14.0
computer nameMPCLINUX
JD of orbit computation2456966.782092
perihelion JD uncertainty (days)5.1548E-05
argument of perihelion uncertainty (°)2.1498E-04
ascending node uncertainty (°)2.1440E-04
inclination uncertainty (°)5.5958E-06
eccentricity uncertainty 4.8585E-08
perihelion distance uncertainty (AU)1.1890E-07
Minimum Orbit Intersection Distances (in AU)
for orbit epoch: 2460200.5, reference: E2024-CB5
Mercury1.60224
Venus1.19114
Earth0.92438
Mars0.37894
Jupiter2.45443
Saturn6.9815
Uranus15.8625
Neptune27.6539

Observations

436 total observations over interval: 1999 11 09.43090 – 2023 05 14.299480
These data are available for download (format description).

Date (UT) J2000 RA J2000 Dec Magn Location Ref
1999 11 09.43090 04 54 37.19 +23 32 40.1 18.9   704 – Lincoln Laboratory ETS, New Mexico MPS 8781
1999 11 09.44529 04 54 36.61 +23 32 39.5 19.6   704 – Lincoln Laboratory ETS, New Mexico MPS 8781
1999 11 09.45968 04 54 36.17 +23 32 40.6 19.8   704 – Lincoln Laboratory ETS, New Mexico MPS 8781
1999 11 09.47406 04 54 35.65 +23 32 40.2 19.3   704 – Lincoln Laboratory ETS, New Mexico MPS 8781
1999 11 09.48843 04 54 35.11 +23 32 41.3 19.4   704 – Lincoln Laboratory ETS, New Mexico MPS 8781
1999 11 12.36569 04 52 50.36 +23 33 33.7 19.5   704 – Lincoln Laboratory ETS, New Mexico MPS 8781
1999 11 12.37997 04 52 49.69 +23 33 34.3 19.7   704 – Lincoln Laboratory ETS, New Mexico MPS 8781
1999 11 12.39425 04 52 49.07 +23 33 34.5 19.8   704 – Lincoln Laboratory ETS, New Mexico MPS 8781
1999 11 12.40854 04 52 48.41 +23 33 35.0 19.7   704 – Lincoln Laboratory ETS, New Mexico MPS 8781
1999 11 16.30089 04 49 59.90 +23 33 50.8 19.9   704 – Lincoln Laboratory ETS, New Mexico MPS 9978
1999 11 16.31541 04 49 59.24 +23 33 49.7 19.6   704 – Lincoln Laboratory ETS, New Mexico MPS 9978
1999 11 16.34394 04 49 57.68 +23 33 49.9 19.8   704 – Lincoln Laboratory ETS, New Mexico MPS 9978
1999 12 07.22832 04 29 50.33 +23 17 49.4 18.9   704 – Lincoln Laboratory ETS, New Mexico MPS 16626
1999 12 07.24288 04 29 49.44 +23 17 48.3 19.4   704 – Lincoln Laboratory ETS, New Mexico MPS 16626
1999 12 07.25745 04 29 48.53 +23 17 46.8 19.2   704 – Lincoln Laboratory ETS, New Mexico MPS 16626
1999 12 07.27201 04 29 47.59 +23 17 44.7 19.1   704 – Lincoln Laboratory ETS, New Mexico MPS 16626
1999 12 07.28652 04 29 46.63 +23 17 44.1 19.0   704 – Lincoln Laboratory ETS, New Mexico MPS 16626
2004 01 22.29667 09 26 33.22 +17 28 55.9 19.8   704 – Lincoln Laboratory ETS, New Mexico MPS 97949
2004 01 22.30956 09 26 32.44 +17 28 59.5 19.8   704 – Lincoln Laboratory ETS, New Mexico MPS 97949
2004 01 22.32257 09 26 31.74 +17 29 02.4 19.9   704 – Lincoln Laboratory ETS, New Mexico MPS 97949
2004 01 22.33533 09 26 30.93 +17 29 07.3 19.8   704 – Lincoln Laboratory ETS, New Mexico MPS 97949
2004 01 26.27499 09 22 39.35 +17 47 57.6 19.6 R 699 – Lowell Observatory-LONEOS MPS 97949
2004 01 26.30586 09 22 37.40 +17 48 04.8   699 – Lowell Observatory-LONEOS MPS 97949
2004 01 26.32591 09 22 36.20 +17 48 11.2   699 – Lowell Observatory-LONEOS MPS 97949
2004 01 26.34590 09 22 34.91 +17 48 17.7   699 – Lowell Observatory-LONEOS MPS 97949
2004 02 11.28040 09 05 54.69 +19 00 02.7 20.2 V 691 – Steward Observatory, Kitt Peak-Spacewatch MPS 98579
2004 02 11.30756 09 05 52.97 +19 00 08.9 20.2 V 691 – Steward Observatory, Kitt Peak-Spacewatch MPS 98579
2004 02 11.33606 09 05 51.16 +19 00 15.5 20.1 V 691 – Steward Observatory, Kitt Peak-Spacewatch MPS 98579
2004 02 23.22072 08 55 06.95 +19 37 46.2 20.2   704 – Lincoln Laboratory ETS, New Mexico MPS 99947
2004 02 23.23223 08 55 06.47 +19 37 46.6 20.5   704 – Lincoln Laboratory ETS, New Mexico MPS 99947
2004 02 23.24361 08 55 05.87 +19 37 48.0 20.7   704 – Lincoln Laboratory ETS, New Mexico MPS 99947
2006 08 21.27904 23 20 30.71 -06 20 31.4 20.4 V 691 – Steward Observatory, Kitt Peak-Spacewatch MPS 175921
2006 08 21.29634 23 20 29.93 -06 20 36.0 20.3 V 691 – Steward Observatory, Kitt Peak-Spacewatch MPS 175921
2006 08 21.31364 23 20 29.20 -06 20 40.7 20.3 V 691 – Steward Observatory, Kitt Peak-Spacewatch MPS 175921
2006 08 28.29795 23 15 06.23 -06 54 45.6 20.1 V 691 – Steward Observatory, Kitt Peak-Spacewatch MPS 176809
2006 08 28.30000 23 15 06.12 -06 54 46.6 19.7 V 703 – Catalina Sky Survey MPS 176809
2006 08 28.30902 23 15 05.72 -06 54 49.3 20.2 V 703 – Catalina Sky Survey MPS 176809
2006 08 28.31526 23 15 05.30 -06 54 50.8 20.0 V 691 – Steward Observatory, Kitt Peak-Spacewatch MPS 176809
2006 08 28.31811 23 15 05.25 -06 54 52.9 20.3 V 703 – Catalina Sky Survey MPS 176809
2006 08 28.32716 23 15 04.64 -06 54 54.7 19.6 V 703 – Catalina Sky Survey MPS 176809
2006 08 28.33545 23 15 04.23 -06 54 57.2 20.2 V 691 – Steward Observatory, Kitt Peak-Spacewatch MPS 176809
2006 09 26.23939 22 49 00.22 -09 21 11.8 20.2 V G96 – Mt. Lemmon Survey MPS 180732
2006 09 26.24611 22 48 59.90 -09 21 13.5 20.3 V G96 – Mt. Lemmon Survey MPS 180732
2006 09 26.25292 22 48 59.58 -09 21 15.0 20.1 V G96 – Mt. Lemmon Survey MPS 180732
2006 09 26.25980 22 48 59.25 -09 21 16.7 20.1 V G96 – Mt. Lemmon Survey MPS 180732
2006 11 17.10204 22 48 47.44 -08 27 43.1 21.3 V G96 – Mt. Lemmon Survey MPS 188297
2006 11 17.10757 22 48 47.73 -08 27 41.6 20.7 V G96 – Mt. Lemmon Survey MPS 188297
2006 11 17.11318 22 48 47.91 -08 27 39.6 20.8 V G96 – Mt. Lemmon Survey MPS 188297
2006 11 17.11876 22 48 48.20 -08 27 37.7 21.4 V G96 – Mt. Lemmon Survey MPS 188297
2008 02 26.45750 12 10 52.21 +00 24 31.3 20.6 V G96 – Mt. Lemmon Survey MPS 239299
2008 02 26.46459 12 10 51.81 +00 24 35.1 21.0 V G96 – Mt. Lemmon Survey MPS 239299
2008 02 26.47175 12 10 51.49 +00 24 37.5 20.4 V G96 – Mt. Lemmon Survey MPS 239299
2008 02 26.47888 12 10 51.13 +00 24 38.6 20.9 V G96 – Mt. Lemmon Survey MPS 239299
2008 02 28.27394 12 09 26.90 +00 33 37.7 20.4 V 691 – Steward Observatory, Kitt Peak-Spacewatch MPS 239299
2008 02 28.29155 12 09 26.02 +00 33 42.6 20.7 V 691 – Steward Observatory, Kitt Peak-Spacewatch MPS 239299
2008 02 28.30916 12 09 25.15 +00 33 48.0 20.6 V 691 – Steward Observatory, Kitt Peak-Spacewatch MPS 239299
2008 03 27.20796 11 43 30.90 +03 11 33.1 20.4 V G96 – Mt. Lemmon Survey MPS 243964
2008 03 27.21513 11 43 30.50 +03 11 35.0 20.2 V G96 – Mt. Lemmon Survey MPS 243964
2008 03 27.22227 11 43 30.10 +03 11 37.4 20.4 V G96 – Mt. Lemmon Survey MPS 243964
2008 03 27.22943 11 43 29.71 +03 11 39.4 20.3 V G96 – Mt. Lemmon Survey MPS 243964
2008 03 28.21664 11 42 36.72 +03 16 46.1 20.7 V G96 – Mt. Lemmon Survey MPS 243964
2008 03 28.22414 11 42 36.36 +03 16 48.2 20.6 V G96 – Mt. Lemmon Survey MPS 243964
2008 03 28.23174 11 42 35.89 +03 16 50.9 20.4 V G96 – Mt. Lemmon Survey MPS 243964
2008 03 28.23928 11 42 35.46 +03 16 52.6 20.8 V G96 – Mt. Lemmon Survey MPS 243964
2008 03 29.28369 11 41 40.16 +03 22 11.4 21.0 V G96 – Mt. Lemmon Survey MPS 244554
2008 03 29.28945 11 41 39.84 +03 22 12.8 20.9 V G96 – Mt. Lemmon Survey MPS 244554
2008 03 29.29550 11 41 39.51 +03 22 14.9 20.8 V G96 – Mt. Lemmon Survey MPS 244554
2008 03 29.30134 11 41 39.15 +03 22 16.3 20.6 V G96 – Mt. Lemmon Survey MPS 244554
2008 04 05.26564 11 35 58.12 +03 54 19.8 20.4 V G96 – Mt. Lemmon Survey MPS 245649
2008 04 05.27255 11 35 57.84 +03 54 21.8   291 – LPL/Spacewatch II MPS 245649
2008 04 05.27454 11 35 57.69 +03 54 21.8 20.4 V G96 – Mt. Lemmon Survey MPS 245649
2008 04 05.27765 11 35 57.59 +03 54 23.0   291 – LPL/Spacewatch II MPS 245649
2008 04 05.28151 11 35 57.43 +03 54 23.9   291 – LPL/Spacewatch II MPS 245649
2008 04 05.28344 11 35 57.30 +03 54 24.1 20.4 V G96 – Mt. Lemmon Survey MPS 245649
2008 04 05.29228 11 35 56.86 +03 54 26.5 20.7 V G96 – Mt. Lemmon Survey MPS 245649
2010 10 28.34736 03 18 37.90 +18 31 17.8 19.1 V 703 – Catalina Sky Survey MPS 353444
2010 10 28.35498 03 18 37.54 +18 31 17.4 19.3 V 703 – Catalina Sky Survey MPS 353444
2010 10 28.36250 03 18 37.15 +18 31 15.8 19.6 V 703 – Catalina Sky Survey MPS 353444
2010 10 28.37015 03 18 36.68 +18 31 15.7 19.9 V 703 – Catalina Sky Survey MPS 353444
2010 10 29.31220 03 17 52.13 +18 29 29.0 19.2 R G92 – Jarnac Observatory, Vail MPS 355045
2010 10 29.32761 03 17 51.29 +18 29 27.9 19.2 R G92 – Jarnac Observatory, Vail MPS 355045
2010 10 29.34302 03 17 50.47 +18 29 26.3 18.6 R G92 – Jarnac Observatory, Vail MPS 355045
2010 10 31.18535 03 16 19.55 +18 25 44.4   691 – Steward Observatory, Kitt Peak-Spacewatch MPS 355045
2010 10 31.20307 03 16 18.61 +18 25 42.2   691 – Steward Observatory, Kitt Peak-Spacewatch MPS 355045
2010 10 31.22078 03 16 17.67 +18 25 40.2   691 – Steward Observatory, Kitt Peak-Spacewatch MPS 355045
2010 11 03.92730 03 13 01.43 +18 17 19.3 18.8 V J75 – OAM Observatory, La Sagra MPS 355045
2010 11 03.94020 03 13 00.71 +18 17 17.7 19.0 V J75 – OAM Observatory, La Sagra MPS 355045
2010 11 03.95309 03 12 59.96 +18 17 15.9 18.5 V J75 – OAM Observatory, La Sagra MPS 355045
2010 11 06.26396 03 10 51.13 +18 11 33.2 19.2   704 – Lincoln Laboratory ETS, New Mexico MPS 357164
